[[{"header":{"parameterUnit":"m.s-1","parameterCategory":1,"la1":30.2991,"la2":30.254,"lo1":-89.0895,"lo2":-89.0444,"dy":0.0017,"dx":0.0017,"nx":28,"ny":28,"refTime":"2023-09-26T09:00:00:Z","depth":0,"parameterNumber":2,"parameterNumberName":"U-component_of_WINDS"},"data":[0,0,0,0,0,0,0,0,0,0,0,0,0,0,0,0,0,0,0,0,0,0,0,0,0,0,0,0,0,0,0,0,0,0,0,0,0,0,0,0,0,0,0,0,0,0,0,0,0,0,0,0,0,0,0,0,0,0,-1.7068,-1.7067,0,-1.6999,-1.6998,-1.6998,-1.6925,-1.6924,-1.6923,-1.6922,-1.6851,-1.685,-1.6849,0,0,0,0,0,0,0,0,0,0,0,0,0,-1.7137,-1.7136,-1.7068,-1.7067,-1.7066,-1.6999,-1.6998,-1.6998,-1.6925,-1.6924,-1.6922,-1.6921,-1.6851,-1.685,-1.6849,0,0,0,0,0,0,0,0,0,0,0,0,0,-1.7092,-1.7136,-1.7068,-1.7022,-1.7017,-1.7,-1.6998,-1.6997,-1.6925,-1.6924,-1.6922,-1.6921,-1.6852,-1.685,-1.6849,-1.6871,0,0,-1.6845,-1.6844,0,0,0,0,0,0,0,0,-1.7094,-1.7089,-1.703,-1.7025,-1.702,-1.6969,-1.6997,-1.6955,-1.6926,-1.696,-1.6922,-1.692,-1.6891,-1.6887,-1.6877,-1.6868,-1.6865,-1.6844,-1.6844,-1.6843,-1.6843,0,0,0,0,0,0,0,-1.7098,-1.7092,-1.7041,-1.7029,-1.7023,-1.7005,-1.6997,-1.6989,-1.6935,-1.6957,-1.6951,-1.6944,-1.6888,-1.6879,-1.6875,-1.6864,-1.6844,-1.6843,-1.6842,-1.6842,-1.6872,-1.6873,0,0,0,0,0,0,-1.7108,-1.7095,-1.7043,-1.7039,-1.7054,-1.7005,-1.6996,-1.6987,-1.6935,-1.6926,-1.6946,-1.6941,-1.6882,-1.6877,-1.6872,-1.6897,-1.6843,-1.6842,-1.6841,-1.687,-1.6872,-1.6874,0,0,0,0,0,0,-1.711,-1.7104,-1.7046,-1.7065,-1.7057,-1.7006,-1.6996,-1.6986,-1.6976,-1.6927,-1.6917,-1.6946,-1.688,-1.6874,-1.6873,-1.6893,-1.6841,-1.684,-1.6868,-1.6871,-1.6873,-1.6946,0,0,0,0,0,0,-1.7112,-1.7105,-1.7113,-1.7066,-1.7056,-1.7047,-1.6997,-1.6986,-1.6974,-1.6968,-1.6924,-1.6915,-1.6879,-1.6875,-1.6871,-1.689,-1.6839,-1.6866,-1.687,-1.6872,-1.6941,-1.695,-1.6958,0,0,0,0,0,-1.7115,-1.7135,-1.7113,-1.7107,-1.7064,-1.7048,-1.7043,-1.7,-1.6976,-1.6984,-1.6952,-1.6916,-1.6891,-1.6875,-1.687,-1.689,-1.6865,-1.6869,-1.6872,-1.6937,-1.6948,-1.6958,0,0,0,0,0,0,-1.7184,-1.7128,-1.7103,-1.7109,-1.7084,-1.7036,-1.7044,-1.7013,-1.6994,-1.6989,-1.6937,-1.6928,-1.6933,-1.6911,-1.6894,-1.691,-1.6873,-1.6876,-1.6924,-1.6935,-1.6943,-1.6949,-1.6838,0,0,0,0,0,-1.72,-1.7192,-1.7143,-1.7153,-1.7142,-1.7096,-1.7087,-1.7057,-1.7029,-1.7018,-1.6986,-1.6961,-1.6947,-1.6939,-1.6924,-1.6937,-1.6928,-1.6948,-1.6957,-1.6964,-1.6967,-1.6975,-1.6985,-1.6886,-1.6886,-1.6886,0,0,-1.7233,-1.7202,-1.7199,-1.7166,-1.7144,-1.7137,-1.7087,-1.7082,-1.7077,-1.7017,-1.7014,-1.699,-1.6958,-1.6965,-1.6967,-1.6947,-1.6992,-1.6968,-1.6975,-1.6974,-1.698,-1.699,-1.6998,-1.6889,-1.6888,-1.6888,0,0,-1.7291,-1.7265,-1.7272,-1.725,-1.7217,-1.7186,-1.7188,-1.7145,-1.7127,-1.7124,-1.708,-1.7073,-1.705,-1.703,-1.7017,-1.707,-1.7037,-1.7066,-1.711,-1.7119,-1.7127,-1.7134,-1.7155,-1.7163,-1.7069,-1.7069,-1.707,0,-1.7336,-1.7324,-1.7279,-1.7277,-1.7265,-1.7211,-1.7219,-1.72,-1.7163,-1.7156,-1.7135,-1.7107,-1.7081,-1.7084,-1.7097,-1.7088,-1.709,-1.7071,-1.7129,-1.7136,-1.7141,-1.7161,-1.7169,-1.7073,-1.7073,-1.7073,-1.7072,0,-1.7383,-1.7376,-1.7385,-1.7352,-1.7341,-1.7343,-1.7299,-1.7293,-1.7265,-1.7237,-1.7235,-1.7203,-1.7182,-1.718,-1.7151,-1.7179,-1.7168,-1.7139,-1.7101,-1.7155,-1.7173,-1.718,-1.7079,-1.7078,-1.7076,-1.7075,0,0,-1.7482,-1.7425,-1.743,-1.7415,-1.7375,-1.7369,-1.737,-1.735,-1.7347,-1.7323,-1.7324,-1.7307,-1.7281,-1.7266,-1.7235,-1.7242,-1.7289,-1.7212,-1.721,-1.7229,-1.7321,-1.7346,-1.7355,-1.7267,-1.7268,-1.7269,-1.7325,0,-1.7533,-1.7532,-1.7493,-1.7503,-1.7497,-1.7447,-1.7448,-1.7424,-1.7399,-1.739,-1.7362,-1.7352,-1.7316,-1.7307,-1.7312,-1.7282,-1.7307,-1.7277,-1.7269,-1.7269,-1.728,-1.7364,-1.7388,-1.7443,-1.7331,-1.7332,-1.7333,0,-1.7593,-1.7576,-1.7586,-1.7548,-1.7544,-1.7546,-1.7525,-1.7517,-1.749,-1.7471,-1.7456,-1.7421,-1.7421,-1.7385,-1.7385,-1.7366,-1.7359,-1.7345,-1.7346,-1.7345,-1.7306,-1.7367,-1.7459,-1.7468,-1.7343,-1.7342,-1.7342,0,-1.7668,-1.7646,-1.7649,-1.7638,-1.7594,-1.7597,-1.7578,-1.7549,-1.7541,-1.7523,-1.7517,-1.7499,-1.749,-1.7478,-1.7439,-1.7416,-1.7445,-1.7405,-1.7431,-1.7432,-1.744,-1.744,-1.7535,-1.7433,-1.7433,-1.7433,-1.7433,0,-1.7731,-1.7739,-1.7683,-1.7685,-1.7694,-1.7649,-1.7659,-1.7636,-1.7611,-1.7609,-1.7564,-1.7564,-1.7512,-1.7506,-1.7476,-1.7483,-1.7478,-1.7464,-1.7456,-1.7469,-1.7472,-1.7466,-1.7462,-1.7435,-1.7434,-1.7434,-1.7434,0,-1.7815,-1.7777,-1.7779,-1.7737,-1.7727,-1.7736,-1.77,-1.7702,-1.7674,-1.7672,-1.7669,-1.7626,-1.7617,-1.7577,-1.7558,-1.7538,-1.7555,-1.7538,-1.7565,-1.756,-1.759,-1.7589,-1.7685,-1.7697,-1.7586,-1.7587,-1.7588,0,-1.7859,-1.7865,-1.7824,-1.782,-1.7804,-1.7798,-1.7789,-1.7745,-1.7738,-1.7709,-1.7715,-1.7702,-1.769,-1.7678,-1.7645,-1.7631,-1.7615,-1.765,-1.7613,-1.7627,-1.7619,-1.762,-1.7622,-1.7659,-1.766,-1.7661,-1.7662,0,-1.7941,-1.7923,-1.7912,-1.7896,-1.7887,-1.7872,-1.7854,-1.7853,-1.7805,-1.7799,-1.779,-1.7781,-1.7762,-1.7751,-1.7733,-1.7714,-1.7681,-1.7674,-1.768,-1.7694,-1.771,-1.7705,-1.7589,-1.7672,-1.7671,-1.7671,-1.767,-1.767,-1.8008,-1.8012,-1.7985,-1.7975,-1.7958,-1.7943,-1.7943,-1.7916,-1.7908,-1.789,-1.7864,-1.7859,-1.7834,-1.7805,-1.779,-1.7786,-1.7767,-1.7775,-1.7777,-1.778,-1.7788,-1.771,-1.7782,-1.7782,-1.7781,-1.7781,-1.7781,0,-1.809,-1.8071,-1.8062,-1.804,-1.8033,-1.8002,-1.7982,-1.7978,-1.7975,-1.7954,-1.7944,-1.7935,-1.7924,-1.7891,-1.7878,-1.7882,-1.7867,-1.788,-1.788,-1.7877,-1.7804,-1.7802,-1.7893,-1.7893,-1.7893,-1.7893,-1.7893,-1.7893,-1.8132,-1.8138,-1.8117,-1.8115,-1.8095,-1.8091,-1.8082,-1.8069,-1.8053,-1.8045,-1.8036,-1.8015,-1.799,-1.7975,-1.7966,-1.7956,-1.7955,-1.7974,-1.796,-1.7893,-1.7882,-1.7872,-1.787,-1.7973,-1.7973,-1.8034,-1.8034,-1.8035]},{"header":{"parameterUnit":"m.s-1","parameterCategory":1,"la1":30.2991,"la2":30.254,"lo1":-89.0895,"lo2":-89.0444,"dy":0.0017,"dx":0.0017,"nx":28,"ny":28,"refTime":"2023-09-26T09:00:00:Z","depth":0,"parameterNumber":3,"parameterNumberName":"V-component_of_WINDS"},"data":[0,0,0,0,0,0,0,0,0,0,0,0,0,0,0,0,0,0,0,0,0,0,0,0,0,0,0,0,0,0,0,0,0,0,0,0,0,0,0,0,0,0,0,0,0,0,0,0,0,0,0,0,0,0,0,0,0,0,-0.134,-0.134,0,-0.1412,-0.1413,-0.1413,-0.1464,-0.1464,-0.1464,-0.1465,-0.154,-0.1541,-0.1543,0,0,0,0,0,0,0,0,0,0,0,0,0,-0.1247,-0.1248,-0.1339,-0.134,-0.1341,-0.1412,-0.1413,-0.1414,-0.1464,-0.1464,-0.1465,-0.1465,-0.1539,-0.1541,-0.1543,0,0,0,0,0,0,0,0,0,0,0,0,0,-0.13,-0.1248,-0.1339,-0.1375,-0.1379,-0.1411,-0.1413,-0.1414,-0.1464,-0.1464,-0.1465,-0.1465,-0.1538,-0.1541,-0.1543,-0.1547,0,0,-0.1551,-0.1552,0,0,0,0,0,0,0,0,-0.1297,-0.1303,-0.1369,-0.1372,-0.1377,-0.1429,-0.1407,-0.1458,-0.1463,-0.1431,-0.1465,-0.1465,-0.1502,-0.1508,-0.152,-0.155,-0.1554,-0.1551,-0.1552,-0.1553,-0.1554,0,0,0,0,0,0,0,-0.1293,-0.13,-0.1368,-0.137,-0.1374,-0.1388,-0.1396,-0.1417,-0.1463,-0.1434,-0.1438,-0.1446,-0.1505,-0.1518,-0.1522,-0.1555,-0.1551,-0.1553,-0.1554,-0.1555,-0.1594,-0.1594,0,0,0,0,0,0,-0.1283,-0.1297,-0.1366,-0.137,-0.1337,-0.1389,-0.1398,-0.1412,-0.1463,-0.1471,-0.1445,-0.1448,-0.1513,-0.1519,-0.1525,-0.1535,-0.1553,-0.1556,-0.1557,-0.1595,-0.1594,-0.1593,0,0,0,0,0,0,-0.1281,-0.1289,-0.1363,-0.1335,-0.1345,-0.139,-0.1405,-0.1413,-0.1426,-0.1471,-0.148,-0.145,-0.1514,-0.1522,-0.1542,-0.1538,-0.1557,-0.1559,-0.1595,-0.1594,-0.1594,-0.1553,0,0,0,0,0,0,-0.1278,-0.1288,-0.1289,-0.1334,-0.1346,-0.1378,-0.1405,-0.1414,-0.143,-0.1434,-0.1478,-0.1486,-0.1515,-0.1538,-0.1544,-0.1542,-0.1561,-0.1596,-0.1595,-0.1594,-0.1555,-0.1551,-0.1548,0,0,0,0,0,-0.1275,-0.1275,-0.1289,-0.1297,-0.1349,-0.1377,-0.1384,-0.1418,-0.1429,-0.1432,-0.1461,-0.1484,-0.1537,-0.1539,-0.1547,-0.1545,-0.1596,-0.1595,-0.1594,-0.1556,-0.1552,-0.1548,0,0,0,0,0,0,-0.1228,-0.1281,-0.1298,-0.1312,-0.134,-0.1386,-0.1389,-0.1411,-0.1436,-0.1439,-0.148,-0.149,-0.1506,-0.1527,-0.1529,-0.1553,-0.157,-0.157,-0.1538,-0.1534,-0.1531,-0.1526,-0.1563,0,0,0,0,0,-0.1219,-0.1237,-0.1283,-0.1291,-0.1304,-0.1344,-0.1358,-0.1381,-0.1412,-0.1424,-0.1454,-0.1483,-0.1507,-0.1522,-0.1545,-0.1558,-0.1569,-0.1561,-0.1557,-0.1554,-0.1554,-0.1565,-0.1562,-0.159,-0.159,-0.159,0,0,-0.1202,-0.1233,-0.1242,-0.1283,-0.1307,-0.1326,-0.1354,-0.1372,-0.1387,-0.1427,-0.1448,-0.1471,-0.1507,-0.1523,-0.1532,-0.1542,-0.1549,-0.1552,-0.155,-0.1552,-0.1563,-0.1561,-0.1558,-0.159,-0.159,-0.159,0,0,-0.118,-0.1204,-0.1215,-0.1239,-0.1275,-0.1302,-0.1304,-0.1347,-0.1365,-0.1386,-0.1418,-0.1436,-0.1474,-0.1499,-0.1516,-0.1505,-0.1528,-0.1511,-0.1493,-0.1503,-0.1501,-0.1499,-0.1497,-0.1495,-0.1511,-0.1511,-0.1511,0,-0.1153,-0.1182,-0.1217,-0.1235,-0.1252,-0.1289,-0.1301,-0.1323,-0.1365,-0.1377,-0.1387,-0.1438,-0.1464,-0.1488,-0.1485,-0.1497,-0.1503,-0.1507,-0.1498,-0.1497,-0.1496,-0.1494,-0.1493,-0.1509,-0.1509,-0.151,-0.151,0,-0.1149,-0.1169,-0.1173,-0.1214,-0.1232,-0.1246,-0.1284,-0.1299,-0.1321,-0.1347,-0.1369,-0.1402,-0.1434,-0.1441,-0.1462,-0.1469,-0.1474,-0.149,-0.1508,-0.149,-0.149,-0.1489,-0.1506,-0.1507,-0.1507,-0.1508,0,0,-0.11,-0.1161,-0.1162,-0.1182,-0.1225,-0.1242,-0.1258,-0.1289,-0.1302,-0.1329,-0.1346,-0.1378,-0.1394,-0.1414,-0.1438,-0.1446,-0.1438,-0.1462,-0.1464,-0.1458,-0.1449,-0.1438,-0.1437,-0.1453,-0.1453,-0.1453,-0.1447,0,-0.1087,-0.1118,-0.1151,-0.1171,-0.1191,-0.1227,-0.1242,-0.127,-0.1295,-0.1316,-0.1343,-0.1367,-0.1385,-0.1397,-0.1407,-0.1437,-0.1437,-0.1437,-0.1469,-0.147,-0.1461,-0.1436,-0.1424,-0.1417,-0.1447,-0.1447,-0.1447,0,-0.1075,-0.1102,-0.1125,-0.1168,-0.1177,-0.119,-0.1222,-0.1241,-0.1275,-0.1293,-0.1315,-0.1341,-0.1362,-0.1376,-0.1405,-0.1405,-0.142,-0.1437,-0.1437,-0.1443,-0.1458,-0.1443,-0.1415,-0.1415,-0.1446,-0.1446,-0.1446,0,-0.104,-0.1082,-0.1102,-0.1117,-0.1167,-0.1175,-0.1197,-0.1231,-0.1248,-0.1276,-0.1288,-0.1318,-0.1335,-0.1358,-0.1392,-0.1399,-0.1419,-0.1435,-0.1435,-0.1434,-0.1439,-0.1439,-0.1415,-0.1445,-0.1445,-0.1445,-0.1445,0,-0.1023,-0.1036,-0.1087,-0.1099,-0.1115,-0.1152,-0.1167,-0.1192,-0.1222,-0.124,-0.1272,-0.1289,-0.1332,-0.1354,-0.138,-0.1402,-0.1408,-0.1424,-0.1432,-0.1422,-0.1421,-0.1434,-0.1436,-0.1445,-0.1445,-0.1445,-0.1445,0,-0.0987,-0.1022,-0.1046,-0.1091,-0.1103,-0.1113,-0.1152,-0.1166,-0.1193,-0.1215,-0.1223,-0.1265,-0.1292,-0.1328,-0.1367,-0.1385,-0.1404,-0.1414,-0.1393,-0.1397,-0.1396,-0.1396,-0.1382,-0.1383,-0.141,-0.1409,-0.1409,0,-0.0975,-0.0986,-0.1033,-0.1048,-0.1068,-0.1091,-0.1109,-0.1146,-0.1164,-0.1203,-0.1212,-0.1242,-0.1269,-0.1311,-0.1345,-0.1376,-0.1388,-0.1381,-0.1393,-0.1384,-0.139,-0.139,-0.1392,-0.1378,-0.1378,-0.1377,-0.1377,0,-0.095,-0.0967,-0.0992,-0.1023,-0.1043,-0.107,-0.1097,-0.1107,-0.115,-0.1169,-0.1197,-0.1218,-0.1257,-0.1287,-0.1322,-0.1345,-0.1369,-0.1373,-0.1375,-0.1367,-0.1355,-0.1363,-0.1387,-0.1373,-0.1374,-0.1374,-0.1374,-0.1374,-0.0928,-0.094,-0.0975,-0.1002,-0.1027,-0.1052,-0.1068,-0.1096,-0.1121,-0.1156,-0.1176,-0.1205,-0.1239,-0.1289,-0.131,-0.1334,-0.1343,-0.1345,-0.1346,-0.1346,-0.1344,-0.1349,-0.134,-0.134,-0.134,-0.134,-0.134,0,-0.0907,-0.0931,-0.0955,-0.0993,-0.1015,-0.1034,-0.1066,-0.1083,-0.1108,-0.1137,-0.1163,-0.1196,-0.1226,-0.1262,-0.1294,-0.1306,-0.1318,-0.1314,-0.1314,-0.1319,-0.1333,-0.1329,-0.1304,-0.1304,-0.1304,-0.1304,-0.1304,-0.1304,-0.0898,-0.0921,-0.0941,-0.0976,-0.1001,-0.1029,-0.1046,-0.107,-0.1094,-0.113,-0.1155,-0.1178,-0.1211,-0.1246,-0.1274,-0.1285,-0.1296,-0.1288,-0.1302,-0.1315,-0.1318,-0.1321,-0.1318,-0.129,-0.129,-0.1286,-0.1286,-0.1286]}]]